• MPC Preparation (Info)

  • MPEC 2010-F53 : 2010 FQ9

    The following Minor Planet Electronic Circular may be linked-to from your own Web pages, but must not otherwise be redistributed electronically.

    A form allowing access to any MPEC is at the bottom of this page.


    Read MPEC 2010-F52 Read MPEC 2010-F54


    M.P.E.C. 2010-F53                                Issued 2010 Mar. 21, 21:59 UT
    
         The Minor Planet Electronic Circulars contain information on unusual
             minor planets and routine data on comets.  They are published
       on behalf of Commission 20 of the International Astronomical Union by the
              Minor Planet Center, Smithsonian Astrophysical Observatory,
                              Cambridge, MA 02138, U.S.A.
    
                 Prepared using the Tamkin Foundation Computer Network
    
                                  MPC@CFA.HARVARD.EDU
           URL https://www.minorplanetcenter.org/iau/mpc.html  ISSN 1523-6714
    
                                       2010 FQ9
    
    Observations:
         K10F09Q* C2010 03 20.31596 11 21 39.74 +09 46 55.0          21.0 V EF053G96
         K10F09Q  C2010 03 20.32185 11 21 39.88 +09 46 51.7          20.8 V EF053G96
         K10F09Q  C2010 03 20.32777 11 21 40.10 +09 46 47.8          20.8 V EF053G96
         K10F09Q  C2010 03 20.33374 11 21 40.32 +09 46 44.3          21.4 V EF053G96
         K10F09Q  C2010 03 20.37345 11 21 41.68 +09 46 19.4          21.9 V EF053G96
         K10F09Q  C2010 03 20.38102 11 21 42.01 +09 46 14.5          21.3 V EF053G96
         K10F09Q  C2010 03 20.38859 11 21 42.26 +09 46 10.2          20.6 V EF053G96
         K10F09Q  C2010 03 20.39684 11 21 42.55 +09 46 04.4          21.4 V EF053G96
         K10F09Q  C2010 03 21.27821 11 22 25.31 +09 36 55.5          21.0 V EF053G96
         K10F09Q  C2010 03 21.28417 11 22 25.58 +09 36 51.3          20.4 V EF053G96
         K10F09Q  C2010 03 21.29014 11 22 25.72 +09 36 48.3          20.8 V EF053G96
         K10F09Q  C2010 03 21.38809 11 22 29.27 +09 35 45.5          20.7 R EF053926
         K10F09Q  C2010 03 21.39428 11 22 29.51 +09 35 42.4          20.5 R EF053926
         K10F09Q  C2010 03 21.40049 11 22 29.75 +09 35 38.0          20.2 R EF053926
    
    Observer details:
    926 Tenagra II Observatory.  Observers P. R. Holvorcem, M. Schwartz.  Measurer
        P. R. Holvorcem.  0.81-m f/7 Ritchey-Chretien + CCD.
    G96 Mt. Lemmon Survey.  Observers A. R. Gibbs, A. Boattini.  Measurers
        J. D. Ahern, E. C. Beshore, A. Boattini, G. J. Garradd, A. R. Gibbs,
        A. D. Grauer, R. E. Hill, R. A. Kowalski, S. M. Larson, R. H. McNaught.
        1.5-m reflector + CCD.
    
    Orbital elements:
    2010 FQ9                                                 Earth MOID = 0.2514 AU
    Epoch 2010 Jan. 4.0 TT = JDT 2455200.5                  MPC
    M 337.63046              (2000.0)            P               Q
    n   0.33314311     Peri.  124.15778     -0.98502530     -0.17149458
    a   2.0608616      Node    45.97464     +0.14894810     -0.89828950
    e   0.3964337      Incl.    1.41387     +0.08683095     -0.40455604
    P   2.96           H   22.8           G   0.15           U   9
    Residuals in seconds of arc
    100320 G96  0.6+  0.3-    100320 G96  0.4+  0.0     100321 G96  0.4-  0.2+
    100320 G96  0.3-  0.0     100320 G96  0.0   0.5+    100321 926  0.0   0.3-
    100320 G96  0.1-  0.2-    100320 G96  0.2-  0.1-    100321 926  0.1+  0.6+
    100320 G96  0.1+  0.0     100321 G96  0.3-  0.2-    100321 926  0.1+  0.3+
    100320 G96  0.5-  0.1+    100321 G96  0.6+  0.6-
    
    Ephemeris:
    2010 FQ9                 a,e,i = 2.06, 0.40, 1                   q = 1.2439
    Date    TT    R. A. (2000) Decl.     Delta      r     Elong.  Phase     V
    2010 03 15    11 17.74   +10 37.8    0.253    1.244   170.2     7.8    20.8
    2010 03 17    11 19.18   +10 19.7    0.254    1.245   169.0     8.8    20.9
    2010 03 19    11 20.66   +10 00.4    0.255    1.246   167.7     9.8    20.9
    2010 03 21    11 22.20   +09 40.1    0.257    1.247   166.4    10.8    21.0
    2010 03 23    11 23.81   +09 18.7    0.259    1.248   165.1    11.9    21.1
    2010 03 25    11 25.49   +08 56.3    0.261    1.250   163.8    12.9    21.1
    2010 03 27    11 27.24   +08 32.9    0.264    1.252   162.4    13.9    21.2
    2010 03 29    11 29.07   +08 08.6    0.268    1.255   161.1    14.9    21.3
    2010 03 31    11 30.98   +07 43.6    0.272    1.257   159.8    15.9    21.3
    2010 04 02    11 32.97   +07 17.8    0.276    1.260   158.5    16.9    21.4
    2010 04 04    11 35.04   +06 51.4    0.281    1.263   157.3    17.8    21.5
    2010 04 06    11 37.18   +06 24.4    0.286    1.267   156.0    18.7    21.6
    2010 04 08    11 39.40   +05 56.9    0.291    1.271   154.8    19.6    21.6
    2010 04 10    11 41.70   +05 28.9    0.297    1.275   153.6    20.5    21.7
    2010 04 12    11 44.08   +05 00.5    0.304    1.279   152.4    21.3    21.8
    2010 04 14    11 46.54   +04 31.8    0.310    1.284   151.2    22.1    21.9
    
    Timothy B. Spahr             (C) Copyright 2010 MPC           M.P.E.C. 2010-F53
    

    Read MPEC 2010-F52 Read MPEC 2010-F54


    MPEC number:

    Enter an MPEC number in one of the following forms:

    • 1997-B01 (the full form)
    • J97B01 (the packed version of the full form)
    • B01 (the abbreviated form)